SCP
0 0 0 0 0 0 0 0 0 0 0 0 0 0 0 0 0 0 0 0 0 0 0 0 0 0 0 0 0 0 0 0 0 0 0 0 0 0
0 0 0 0 0 0 0 0 0 0 0 0 0 0 0 0 0 0 0 0 0 0 0 0 0 0 0 0 0 0 0 0 0 0 0 0 0 0
0 0 0 0 0 0 0 0 0 0 0 0 0 0 0 0 0 0 0 0 0 0 0 0 0 0 0 0 0 0 0 0 0 0 0 0 0 0
0 0 0 0 0 0 0 0 0 0 0 0 0 0 0 0 0 0 0 0 0 0 0 0 0 0 0 0 0 0 0 0 0 0 0 0 0 0
0 0 0 0 0 0 0 0 0 0 0 0 0 0 0 0 0 0 0 0 0 0 0 0 0 0 0 0 0 0 0 0 0 0 0 0 0 0
0 0 0 0 0 0 0 0 0 0 0 0 0 0 0 0 0 0 0 0 0 0 0 0 0 0 0 0 0 0 0 0 0 0 0 0 0 0
0 0 0 0 0 0 0 0 0 0 0 0 0 0 0 0 0 0 0 0 0 0 0 0 0 0 0 0 0 0 0 0 0 0 0 0 0 0
0 0 0 0 0 0 0 0 0 0 0 0 0 0 0 0 0 0 0 0 0 0 0 0 0 0 0 0 0 0 0 0 0 0 0 0 0 0
0 0 0 0 0 0 0 0 0 0 0 0 0 0 0 0 0 0 0 0 0 0 0 0 0 0 0 0 0 0 0 0 0 0 0 0 0 0
0 0 0 0 0 0 0 0 0 0 0 0 0 0 0 0 0 0 0 0 0 0 0 0 0 0 0 0 0 0 0 0 0 0 0 0 0 0
0 0 0 0 0 0 0 0 0 0 0 0 0 0 0 0 0 0 0 0 0 0 0 0 0 0 0 0 0 0 0 0 0 0 0 0 0 0
0 0 0 0 0 0 0 0 0 0 0 0 0 0 0 0 0 0 0 0 0 0 0 0 0 0 0 0 0 0 0 0 0 0 0 0 0 -0
0 0 0 0 0 0 0 0 0 0 0 0 0 0 0 0 0 0 0 0 0 0 0 0 0 0 0 0 0 0 0 0 0 0 0 0 -0 0
0 0 0 0 0 0 0 0 0 0 0 0 0 0 0 0 0 0 0 0 0 0 0 0 0 0 0 0 0 0 0 -0 0 0 0 0 -0 0
0 0 0 0 0 0 0 0 0 0 0 0 0 0 0 0 0 0 0 0 0 0 0 0 0 0 0 0 0 0 -0 0 0 0 0 0 0 0
0 0 0 0 0 0 0 0 0 0 0 0 0 0 0 0 0 0 0 0 0 0 0 0 0 0 0 0 0 -0 0 0 0 0 0 0 0 0
0 0 0 0 0 0 0 0 0 0 0 0 0 0 0 0 0 0 0 0 0 0 0 0 0 0 0 0 -0 0 -0 0 0 0 0 0 0 0
0 0 0 0 0 0 0 0 0 0 0 0 0 0 0 0 0 0 0 0 0 0 0 0 0 0 0 0 -0 0 0 -0 0 0 0 0 0 0
0 0 0 0 0 0 0 0 0 0 0 0 0 0 0 0 0 0 0 0 0 0 0 0 0 -0 -0 -0 -0 0 0 0 0 -0 0 0 0 0
0 0 0 0 0 0 0 0 0 0 0 0 0 0 0 0 0 0 0 0 0 0 -0 0 0 0 -0 -0 0 0 0 0 0 0 0 0 0 0
0 0 0 0 0 0 0 0 0 0 0 0 0 0 0 0 0 0 0 0 0 0 -0 0 0 -0 -0 -0 -0 0 0 0 0 0 0 0 0 0
0 0 0 0 0 0 0 0 0 0 0 0 0 0 0 0 0 0 0 0 0 0 0 -0 0 0 0 0 0 0 0 0 0 0 0 0 0 0
0 0 0 0 0 0 0 0 0 0 0 0 0 0 0 0 0 0 0 0 0 0 0 -0 0 0 0 0 0 0 0 0 0 0 0 0 0 0
Wind_Speed_500mb
34 39 40 34 32 38 39 41 46 42 50 49 47 54 59 67 68 64 63 63 64 63 60 53 46 49 50 50 50 50 52 55 57 55 53 51 57 52
39 36 37 32 29 34 37 38 42 46 53 57 57 59 66 62 59 58 57 55 53 49 50 52 46 46 49 50 50 52 52 54 56 54 53 55 55 53
39 36 32 29 33 39 40 39 43 44 50 59 65 64 61 61 60 55 53 52 50 51 52 49 49 48 49 49 53 52 54 57 60 58 57 54 54 52
35 37 36 34 36 36 39 42 45 42 49 62 62 62 61 59 58 56 51 46 45 49 54 59 60 58 52 47 51 53 56 59 56 57 58 55 50 50
35 37 37 36 43 41 43 45 47 50 50 53 60 62 63 59 60 57 52 53 53 56 48 39 41 48 52 53 54 53 53 60 46 47 49 51 53 55
36 39 40 42 41 43 46 47 49 48 47 51 58 60 60 59 58 59 67 65 64 42 31 39 45 45 47 50 50 49 52 51 51 44 42 46 52 53
38 40 43 42 43 46 47 48 47 46 47 51 54 58 58 57 57 61 59 55 46 37 45 43 45 45 42 35 42 45 45 43 38 38 40 40 44 47
39 43 42 45 44 46 47 47 43 43 47 49 54 55 55 53 55 52 52 48 56 45 58 57 48 44 37 37 35 39 39 40 19 23 26 34 39 44
42 43 45 44 45 46 48 43 41 42 45 51 52 48 50 46 51 52 41 46 50 55 51 56 44 44 42 35 32 38 36 32 28 34 34 41 47 51
44 45 46 44 42 45 42 40 40 43 44 46 42 40 39 45 43 43 43 50 57 56 44 56 52 54 47 31 21 17 16 30 35 37 42 47 49 54
43 45 46 44 39 42 41 40 42 41 43 36 33 34 34 34 40 45 46 49 59 58 46 45 61 62 55 33 16 22 25 31 39 41 46 46 48 47
45 47 45 41 40 40 40 39 42 38 34 31 30 30 30 34 41 37 38 43 48 57 43 58 61 57 44 37 18 33 31 31 35 38 36 38 39 44
45 49 46 42 41 40 37 38 36 36 33 33 32 32 33 38 43 40 35 37 43 48 44 44 54 49 38 47 44 29 31 31 31 26 29 35 35 36
54 51 48 46 44 40 38 33 35 35 36 32 31 32 36 41 45 45 40 32 32 41 41 32 41 41 41 41 43 33 26 30 29 29 25 31 34 19
62 60 53 52 48 45 40 36 35 35 35 34 33 34 36 42 47 47 37 29 31 30 29 25 33 37 29 38 42 41 32 34 29 42 30 31 19 8
61 63 63 67 53 50 46 41 39 36 37 37 34 36 36 42 47 42 40 35 36 29 16 20 25 29 26 26 30 32 22 26 34 39 45 20 9 9
50 51 59 68 63 55 53 45 42 39 39 37 34 36 36 42 42 35 34 33 31 33 31 23 18 19 25 18 21 18 19 14 15 28 45 34 36 24
51 53 53 55 64 62 59 49 44 43 39 38 33 33 34 40 38 30 29 28 31 29 29 31 33 24 13 11 18 25 14 9 12 14 23 30 37 42
60 62 59 57 51 59 60 53 48 42 36 40 32 29 32 35 30 28 29 27 29 28 25 28 28 28 26 19 10 22 16 7 14 8 12 19 29 35
60 65 65 64 61 65 53 50 45 41 42 43 35 29 30 31 31 29 28 29 28 30 28 24 18 19 20 20 21 21 16 5 8 12 10 12 15 19
61 60 58 58 65 53 54 47 44 42 44 46 41 31 28 31 30 30 27 26 26 26 25 20 21 19 15 11 10 13 11 8 10 7 10 12 11 5
61 57 56 56 52 51 50 45 46 44 45 47 42 33 28 31 30 29 25 24 21 21 21 19 16 13 9 8 6 7 2 10 13 11 10 14 14 10
48 48 45 46 48 48 47 44 46 46 47 49 43 35 30 31 27 27 23 22 22 19 19 13 11 10 12 12 10 11 10 7 7 6 5 10 11 12
Wind_Direction_500mb
310 312 311 301 293 302 297 287 290 295 297 304 307 307 305 306 308 307 305 302 300 299 298 297 294 289 291 288 284 284 282 284 282 279 277 273 266 274
319 305 307 304 286 293 295 294 293 295 300 307 308 310 311 312 313 312 309 307 305 302 299 301 298 285 282 282 281 281 281 280 283 275 274 271 268 271
321 313 314 310 302 298 296 296 296 297 295 299 305 310 312 314 315 314 311 308 306 303 304 300 296 295 290 283 280 283 288 288 282 279 270 270 270 273
318 315 306 302 301 286 288 292 297 291 296 302 308 313 314 316 317 317 316 311 312 308 306 302 295 289 286 282 278 280 286 291 286 278 268 269 269 270
311 304 292 295 300 300 300 299 297 301 303 305 309 313 315 319 321 322 321 316 315 318 316 312 312 303 282 271 273 279 286 294 293 279 267 268 275 276
298 301 291 299 303 303 301 301 303 303 304 305 308 311 316 321 322 324 322 322 320 325 327 326 328 321 310 279 274 281 284 293 279 274 265 270 279 276
286 297 292 294 300 304 303 304 302 301 304 308 309 312 316 321 323 323 322 325 327 331 337 331 331 326 324 299 275 280 283 285 290 271 265 271 275 277
282 299 291 291 297 301 301 303 298 300 305 307 311 312 316 321 321 321 322 325 326 330 329 330 335 323 325 318 300 285 279 282 300 257 258 267 280 286
287 292 289 287 296 300 300 297 294 297 302 306 309 313 314 321 318 317 323 320 313 319 325 322 340 334 331 326 315 292 276 281 281 288 280 285 291 295
284 288 283 288 296 301 294 289 290 295 300 303 305 313 314 323 321 314 308 303 303 310 326 316 334 336 336 329 327 345 285 270 274 291 286 286 292 300
281 285 283 288 295 301 290 288 290 298 302 301 305 313 314 316 324 308 304 307 309 314 323 324 324 327 330 327 279 331 313 296 282 280 289 285 296 303
285 283 282 282 290 297 289 285 290 303 301 302 302 306 311 320 326 318 306 302 306 312 317 322 321 323 314 320 271 309 312 314 303 287 277 288 302 312
280 280 280 278 286 294 289 285 294 300 301 303 307 315 322 323 326 325 311 298 298 295 316 316 319 329 306 307 306 310 318 320 332 304 288 299 300 305
279 279 279 273 277 286 286 281 294 295 298 302 307 318 321 323 328 325 321 308 295 297 309 307 319 316 304 299 301 311 314 326 342 358 312 315 314 280
278 275 268 266 267 275 280 276 286 287 289 294 301 308 316 322 326 321 318 309 302 301 298 300 318 329 299 295 301 308 318 329 347 356 352 332 294 255
275 278 273 264 255 266 271 273 277 282 280 287 296 303 312 320 320 320 318 320 319 319 308 296 316 335 320 316 311 312 310 310 347 342 13 16 1 179
282 281 274 272 253 260 270 270 271 273 272 281 289 299 310 318 317 317 315 318 321 325 325 320 310 323 329 325 336 334 318 324 335 344 0 24 54 112
273 273 276 276 260 260 270 267 268 267 269 271 280 293 305 316 315 312 311 317 322 323 322 326 328 326 335 315 357 359 354 43 21 3 9 45 39 66
267 270 270 270 274 272 270 265 264 264 265 255 267 282 297 314 313 314 313 314 322 325 325 321 322 323 332 332 353 6 355 20 46 26 54 57 58 54
263 268 272 274 277 276 271 266 265 262 257 248 256 271 287 305 309 308 306 316 318 327 336 342 334 322 317 316 319 358 353 347 27 30 51 61 72 72
269 271 275 278 276 276 279 265 263 261 255 243 251 258 276 291 302 303 299 312 314 318 335 348 350 337 323 308 307 343 357 53 31 55 95 52 46 88
267 271 277 279 279 276 280 260 257 255 248 240 247 253 263 279 292 299 296 304 309 311 328 338 343 356 46 44 304 297 71 115 90 92 66 47 81 68
268 271 280 279 280 278 273 260 251 250 245 242 245 247 253 266 284 289 292 296 302 306 318 336 336 348 13 29 68 97 96 108 124 102 77 82 97 94
Wind_Speed_850mb
34 39 40 34 32 38 39 41 46 42 50 49 47 54 59 67 68 64 63 63 64 63 60 53 46 49 50 50 50 50 52 55 57 55 53 51 57 52
39 36 37 32 29 34 37 38 42 46 53 57 57 59 66 62 59 58 57 55 53 49 50 52 46 46 49 50 50 52 52 54 56 54 53 55 55 53
39 36 32 29 33 39 40 39 43 44 50 59 65 64 61 61 60 55 53 52 50 51 52 49 49 48 49 49 53 52 54 57 60 58 57 54 54 52
35 37 36 34 36 36 39 42 45 42 49 62 62 62 61 59 58 56 51 46 45 49 54 59 60 58 52 47 51 53 56 59 56 57 58 55 50 50
35 37 37 36 43 41 43 45 47 50 50 53 60 62 63 59 60 57 52 53 53 56 48 39 41 48 52 53 54 53 53 60 46 47 49 51 53 55
36 39 40 42 41 43 46 47 49 48 47 51 58 60 60 59 58 59 67 65 64 42 31 39 45 45 47 50 50 49 52 51 51 44 42 46 52 53
38 40 43 42 43 46 47 48 47 46 47 51 54 58 58 57 57 61 59 55 46 37 45 43 45 45 42 35 42 45 45 43 38 38 40 40 44 47
39 43 42 45 44 46 47 47 43 43 47 49 54 55 55 53 55 52 52 48 56 45 58 57 48 44 37 37 35 39 39 40 19 23 26 34 39 44
42 43 45 44 45 46 48 43 41 42 45 51 52 48 50 46 51 52 41 46 50 55 51 56 44 44 42 35 32 38 36 32 28 34 34 41 47 51
44 45 46 44 42 45 42 40 40 43 44 46 42 40 39 45 43 43 43 50 57 56 44 56 52 54 47 31 21 17 16 30 35 37 42 47 49 54
43 45 46 44 39 42 41 40 42 41 43 36 33 34 34 34 40 45 46 49 59 58 46 45 61 62 55 33 16 22 25 31 39 41 46 46 48 47
45 47 45 41 40 40 40 39 42 38 34 31 30 30 30 34 41 37 38 43 48 57 43 58 61 57 44 37 18 33 31 31 35 38 36 38 39 44
45 49 46 42 41 40 37 38 36 36 33 33 32 32 33 38 43 40 35 37 43 48 44 44 54 49 38 47 44 29 31 31 31 26 29 35 35 36
54 51 48 46 44 40 38 33 35 35 36 32 31 32 36 41 45 45 40 32 32 41 41 32 41 41 41 41 43 33 26 30 29 29 25 31 34 19
62 60 53 52 48 45 40 36 35 35 35 34 33 34 36 42 47 47 37 29 31 30 29 25 33 37 29 38 42 41 32 34 29 42 30 31 19 8
61 63 63 67 53 50 46 41 39 36 37 37 34 36 36 42 47 42 40 35 36 29 16 20 25 29 26 26 30 32 22 26 34 39 45 20 9 9
50 51 59 68 63 55 53 45 42 39 39 37 34 36 36 42 42 35 34 33 31 33 31 23 18 19 25 18 21 18 19 14 15 28 45 34 36 24
51 53 53 55 64 62 59 49 44 43 39 38 33 33 34 40 38 30 29 28 31 29 29 31 33 24 13 11 18 25 14 9 12 14 23 30 37 42
60 62 59 57 51 59 60 53 48 42 36 40 32 29 32 35 30 28 29 27 29 28 25 28 28 28 26 19 10 22 16 7 14 8 12 19 29 35
60 65 65 64 61 65 53 50 45 41 42 43 35 29 30 31 31 29 28 29 28 30 28 24 18 19 20 20 21 21 16 5 8 12 10 12 15 19
61 60 58 58 65 53 54 47 44 42 44 46 41 31 28 31 30 30 27 26 26 26 25 20 21 19 15 11 10 13 11 8 10 7 10 12 11 5
61 57 56 56 52 51 50 45 46 44 45 47 42 33 28 31 30 29 25 24 21 21 21 19 16 13 9 8 6 7 2 10 13 11 10 14 14 10
48 48 45 46 48 48 47 44 46 46 47 49 43 35 30 31 27 27 23 22 22 19 19 13 11 10 12 12 10 11 10 7 7 6 5 10 11 12
Wind_Direction_850mb
310 312 311 301 293 302 297 287 290 295 297 304 307 307 305 306 308 307 305 302 300 299 298 297 294 289 291 288 284 284 282 284 282 279 277 273 266 274
319 305 307 304 286 293 295 294 293 295 300 307 308 310 311 312 313 312 309 307 305 302 299 301 298 285 282 282 281 281 281 280 283 275 274 271 268 271
321 313 314 310 302 298 296 296 296 297 295 299 305 310 312 314 315 314 311 308 306 303 304 300 296 295 290 283 280 283 288 288 282 279 270 270 270 273
318 315 306 302 301 286 288 292 297 291 296 302 308 313 314 316 317 317 316 311 312 308 306 302 295 289 286 282 278 280 286 291 286 278 268 269 269 270
311 304 292 295 300 300 300 299 297 301 303 305 309 313 315 319 321 322 321 316 315 318 316 312 312 303 282 271 273 279 286 294 293 279 267 268 275 276
298 301 291 299 303 303 301 301 303 303 304 305 308 311 316 321 322 324 322 322 320 325 327 326 328 321 310 279 274 281 284 293 279 274 265 270 279 276
286 297 292 294 300 304 303 304 302 301 304 308 309 312 316 321 323 323 322 325 327 331 337 331 331 326 324 299 275 280 283 285 290 271 265 271 275 277
282 299 291 291 297 301 301 303 298 300 305 307 311 312 316 321 321 321 322 325 326 330 329 330 335 323 325 318 300 285 279 282 300 257 258 267 280 286
287 292 289 287 296 300 300 297 294 297 302 306 309 313 314 321 318 317 323 320 313 319 325 322 340 334 331 326 315 292 276 281 281 288 280 285 291 295
284 288 283 288 296 301 294 289 290 295 300 303 305 313 314 323 321 314 308 303 303 310 326 316 334 336 336 329 327 345 285 270 274 291 286 286 292 300
281 285 283 288 295 301 290 288 290 298 302 301 305 313 314 316 324 308 304 307 309 314 323 324 324 327 330 327 279 331 313 296 282 280 289 285 296 303
285 283 282 282 290 297 289 285 290 303 301 302 302 306 311 320 326 318 306 302 306 312 317 322 321 323 314 320 271 309 312 314 303 287 277 288 302 312
280 280 280 278 286 294 289 285 294 300 301 303 307 315 322 323 326 325 311 298 298 295 316 316 319 329 306 307 306 310 318 320 332 304 288 299 300 305
279 279 279 273 277 286 286 281 294 295 298 302 307 318 321 323 328 325 321 308 295 297 309 307 319 316 304 299 301 311 314 326 342 358 312 315 314 280
278 275 268 266 267 275 280 276 286 287 289 294 301 308 316 322 326 321 318 309 302 301 298 300 318 329 299 295 301 308 318 329 347 356 352 332 294 255
275 278 273 264 255 266 271 273 277 282 280 287 296 303 312 320 320 320 318 320 319 319 308 296 316 335 320 316 311 312 310 310 347 342 13 16 1 179
282 281 274 272 253 260 270 270 271 273 272 281 289 299 310 318 317 317 315 318 321 325 325 320 310 323 329 325 336 334 318 324 335 344 0 24 54 112
273 273 276 276 260 260 270 267 268 267 269 271 280 293 305 316 315 312 311 317 322 323 322 326 328 326 335 315 357 359 354 43 21 3 9 45 39 66
267 270 270 270 274 272 270 265 264 264 265 255 267 282 297 314 313 314 313 314 322 325 325 321 322 323 332 332 353 6 355 20 46 26 54 57 58 54
263 268 272 274 277 276 271 266 265 262 257 248 256 271 287 305 309 308 306 316 318 327 336 342 334 322 317 316 319 358 353 347 27 30 51 61 72 72
269 271 275 278 276 276 279 265 263 261 255 243 251 258 276 291 302 303 299 312 314 318 335 348 350 337 323 308 307 343 357 53 31 55 95 52 46 88
267 271 277 279 279 276 280 260 257 255 248 240 247 253 263 279 292 299 296 304 309 311 328 338 343 356 46 44 304 297 71 115 90 92 66 47 81 68
268 271 280 279 280 278 273 260 251 250 245 242 245 247 253 266 284 289 292 296 302 306 318 336 336 348 13 29 68 97 96 108 124 102 77 82 97 94